Lexington Weather

Lexington, Massachusetts, USA

43°F
9/20/2020 10:46pm 
  • Lexington Conditions: Clear
  • Temperature: 43.2°F / 6.2°CColder 1.6°F than last hour.
  • Dew Point: 37.0°FDecreased 0.9°Fsince last hour.
  • Relative Humidity: 79%Increased 2.0% since last hour.
  • Wind: Calm, 10-min avg: Calm, gust: None
  • Barometer: 30.52 in Steady
  • Visibility: 10 miles
  • Rain Today: 0.00 in
  •   
Southeast Middlesex County - Special Weather Statement - Special Weather Statement
 - SEE ALL NEARBY ALERTS -

Regional Weather Roundup
for Boston / Norton, MA

        
000
ASUS41 KBOX 160904
RWRBOX

REGIONAL WEATHER ROUNDUP
NATIONAL WEATHER SERVICE BOSTON/NORTON MA
500 AM EDT WED SEP 16 2020

NOTE:  "FAIR" INDICATES FEW OR NO CLOUDS BELOW 12,000 FEET WITH NO 
SIGNIFICANT WEATHER AND/OR OBSTRUCTIONS TO VISIBILITY.

MAZALL-161000-
EASTERN MASSACHUSETTS
  
CITY           SKY/WX    TMP DP  RH WIND       PRES   REMARKS
BOSTON         CLEAR     52  47  83 SW10      30.23F                  
BEVERLY        CLEAR     50  46  86 S3        30.21F                  
LAWRENCE       CLEAR     48  45  89 S6        30.23F                  
BEDFORD        CLEAR     44  41  89 CALM      30.21F                  
BLUE HILL        N/A     51  48  89 SW14      30.22S                  
NORWOOD        CLEAR     39  37  92 CALM      30.23F FOG              
MARSHFIELD     CLEAR     50  50 100 CALM      30.24S                  
PLYMOUTH       CLEAR     46  45  96 CALM      30.24F                  
TAUNTON        CLEAR     42  39  89 CALM      30.24S                  
NEW BEDFORD    CLEAR     43  42  97 CALM      30.24F                  
$$

MAZALL-161000-
CAPE COD AND THE ISLANDS
  
CITY           SKY/WX    TMP DP  RH WIND       PRES   REMARKS
FALMOUTH       NOT AVBL                                               
HYANNIS        PTCLDY    46  44  93 CALM      30.24S                  
CHATHAM        PTCLDY    58  52  80 VRB5      30.27S                  
PROVINCETOWN   CLEAR     54  52  93 SW7       30.26R                  
NANTUCKET      CLEAR     48  44  86 CALM      30.27R                  
MARTHAS VNYRD  CLEAR     39  36  89 CALM      30.26S                  
$$
 
MAZALL-161000-
CENTRAL AND WESTERN MASSACHUSETTS
  
CITY           SKY/WX    TMP DP  RH WIND       PRES   REMARKS
WORCESTER      CLEAR     51  47  86 W13       30.21F                  
FITCHBURG      CLEAR     45  41  86 CALM      30.22S                  
ORANGE         CLEAR     40  39  97 CALM      30.22F                  
SPRINGFIELD    NOT AVBL                                               
WESTFIELD      CLEAR     42  42 100 CALM      30.22F                  
NORTH ADAMS    CLEAR     45  42  89 CALM      30.21S                  
PITTSFIELD     FOG       40  39  97 CALM      30.20F VSB 1/2          
$$
 
RIZALL-161000-
RHODE ISLAND
  
CITY           SKY/WX    TMP DP  RH WIND       PRES   REMARKS
PROVIDENCE     CLEAR     49  47  93 CALM      30.25F                  
NEWPORT        CLEAR     51  48  89 CALM      30.24F                  
BLOCK ISLAND   MOCLDY    59  50  72 SW9       30.26S                  
SMITHFIELD     CLEAR     48  48 100 SW3       30.24F                  
WESTERLY       CLEAR     45  42  89 CALM      30.25F                  
$$
 
CTZALL-161000-
CONNECTICUT
  
CITY           SKY/WX    TMP DP  RH WIND       PRES   REMARKS
BRADLEY INTL   MOCLDY    47  44  90 SW3       30.23S                  
HARTFORD       CLEAR     50  46  86 S3        30.24S                  
BRIDGEPORT     PTCLDY    56  50  80 NW3       30.24S                  
DANBURY        CLEAR     44  43  96 CALM      30.25F                  
GROTON         CLEAR     60  51  72 SW12      30.24S                  
NEW HAVEN      MOCLDY    52  50  93 N3        30.24F                  
CHESTER        FAIR      48  48 100 CALM      30.24F                  
MERIDEN        CLEAR     44  41  89 CALM      30.24F                  
WILLIMANTIC    FOG       43  43 100 CALM      30.25S VSB 1/4          
OXFORD         CLEAR     49  48  97 CALM      30.25S                  
$$

MEZ002-015-021-024-NHZ003-005-008-011-012-014-VTZ005-008-161000-
NORTHERN NEW ENGLAND
  
CITY           SKY/WX    TMP DP  RH WIND       PRES   REMARKS
PORTLAND ME    CLEAR     48  44  86 CALM      30.18F                  
BANGOR ME      MOCLDY    53  48  83 S6        30.17F                  
CONCORD NH     CLEAR     37  35  92 CALM      30.20S                  
MANCHESTER NH  CLEAR     50  43  77 S5        30.18F                  
NASHUA NH      CLEAR     49  46  90 CALM      30.21F                  
PORTSMOUTH NH  CLEAR     50  42  75 SW6       30.19                   
JAFFREY NH     CLEAR     45  41  86 S6        30.20F                  
KEENE NH       CLEAR     38  38 100 CALM      30.22S                  
BURLINGTON VT  CLEAR     55  43  63 S14G20    30.09F                  
MT. WASHINGTON NOT AVBL                                               
$$

NYZ052-076-161000-
EASTERN NEW YORK
  
CITY           SKY/WX    TMP DP  RH WIND       PRES   REMARKS
ALBANY         MOCLDY    44  44 100 VRB3      30.19F                  
NEW YORK CITY  MOCLDY    61  48  62 SW3       30.24S                  
$$
 
ANZALL-161000-
MARINE OBSERVATIONS
  
STATION/POSITION TIME  TEMP    WIND        PRES    VSBY  WAVE
                       AIR SEA DIR/SP/G                  HT/PER
                 (UTC) (F)     (DEG/KT/KT) (MB)    (MI)  (FT/S)
BOSTON BUOY      0850   59 63  200/ 14/ 17 1022.8S         2/11
BUZZARDS BAY     0800          240/ 11/ 12 1025.3F
NANTUCKET SOUND  0850      70  210/ 10/ 12   N/A           1/ 2
MASS BAY-STELLWA 0804   58     250/ 14/ 17 1021.6F  1 7/8  3/ 4
ISLE OF SHOALS   0800   56     210/ 16/ 19 1022.5S
S OF BLOCK IS    0826      70                N/A           4/12
$$

......................KEY.........................
  SKY/WX - SKY CONDITION/PRESENT WEATHER
  TMP    - TEMPERATURE IN FAHRENHEIT
  DWPT   - DEWPOINT IN FAHRENHEIT
  RH     - RELATIVE HUMIDITY IN PERCENT
  WIND   - DIRECTION AND SPEED IN MPH
  PRES   - MEAN SEA LEVEL PRESSURE IN INCHES OF HG
  WCI    - WIND CHILL INDEX
  VSB    - VISIBILITY IN MILES
  HX     - HEAT INDEX
  TC     - TEMPERATURE IN CELSIUS
  VRB    - VARIABLE WIND DIRECTION
  N/A    - NOT AVAILABLE
  
      

Other recent Regional Weather Roundups

Sun Sep 20, 10:04pm

Sun Sep 20, 9:04pm

Sun Sep 20, 8:05pm

Sun Sep 20, 7:04pm

Sun Sep 20, 6:04pm

Sun Sep 20, 5:04pm

Sun Sep 20, 4:04pm

Sun Sep 20, 3:05pm

Sun Sep 20, 2:05pm

Sun Sep 20, 1:04pm

Sun Sep 20, 12:04pm

Sun Sep 20, 11:04am

Sun Sep 20, 10:04am

Sun Sep 20, 9:04am

Sun Sep 20, 8:04am

Sun Sep 20, 7:04am

Sun Sep 20, 6:04am

Sun Sep 20, 5:04am

Sun Sep 20, 4:04am

Sun Sep 20, 3:05am

Sun Sep 20, 2:04am

Sun Sep 20, 1:04am

Sun Sep 20, 12:04am

Sat Sep 19, 11:04pm

Sat Sep 19, 10:04pm

Sat Sep 19, 9:04pm

Sat Sep 19, 8:05pm

Sat Sep 19, 7:04pm

Sat Sep 19, 6:05pm

Sat Sep 19, 5:04pm

Sat Sep 19, 4:04pm

Sat Sep 19, 3:04pm

Sat Sep 19, 2:04pm

Sat Sep 19, 1:05pm

Sat Sep 19, 12:04pm

Sat Sep 19, 11:04am

Sat Sep 19, 10:04am

Sat Sep 19, 9:05am

Sat Sep 19, 8:04am

Sat Sep 19, 7:04am

Sat Sep 19, 6:04am

Sat Sep 19, 5:04am

Sat Sep 19, 4:04am

Sat Sep 19, 3:04am

Sat Sep 19, 2:04am

Sat Sep 19, 1:04am

Sat Sep 19, 12:04am

Fri Sep 18, 11:05pm

Fri Sep 18, 10:04pm

Fri Sep 18, 9:04pm

Fri Sep 18, 8:04pm

Fri Sep 18, 7:04pm

Fri Sep 18, 6:04pm

Fri Sep 18, 5:05pm

Fri Sep 18, 4:04pm

Fri Sep 18, 3:05pm

Fri Sep 18, 2:04pm

Fri Sep 18, 1:04pm

Fri Sep 18, 12:04pm

Fri Sep 18, 11:05am

Fri Sep 18, 10:05am

Fri Sep 18, 9:04am

Fri Sep 18, 8:04am

Fri Sep 18, 7:04am

Fri Sep 18, 6:04am

Fri Sep 18, 5:04am

Fri Sep 18, 4:04am

Fri Sep 18, 3:04am

Fri Sep 18, 2:04am

Fri Sep 18, 1:04am

Fri Sep 18, 12:04am

Thu Sep 17, 11:05pm

Thu Sep 17, 10:04pm

Thu Sep 17, 9:04pm

Thu Sep 17, 8:05pm

Thu Sep 17, 7:04pm

Thu Sep 17, 6:04pm

Thu Sep 17, 5:04pm

Thu Sep 17, 4:04pm

Thu Sep 17, 3:05pm

Thu Sep 17, 2:04pm

Thu Sep 17, 1:04pm

Thu Sep 17, 12:04pm

Thu Sep 17, 11:04am

Thu Sep 17, 10:04am

Thu Sep 17, 9:04am

Thu Sep 17, 8:04am

Thu Sep 17, 7:04am

Thu Sep 17, 6:04am

Thu Sep 17, 5:04am

Thu Sep 17, 4:04am

Thu Sep 17, 3:04am

Thu Sep 17, 2:05am

Thu Sep 17, 1:05am

Thu Sep 17, 12:04am

Wed Sep 16, 11:04pm

Wed Sep 16, 10:04pm

Wed Sep 16, 9:04pm

Wed Sep 16, 8:05pm

Wed Sep 16, 7:04pm

Wed Sep 16, 6:04pm

Wed Sep 16, 5:04pm

Wed Sep 16, 4:04pm

Wed Sep 16, 3:04pm

Wed Sep 16, 2:04pm

Wed Sep 16, 1:04pm

Wed Sep 16, 12:04pm

Wed Sep 16, 11:04am

Wed Sep 16, 10:04am

Wed Sep 16, 9:04am

Wed Sep 16, 8:04am

Wed Sep 16, 7:04am

Wed Sep 16, 6:04am

Wed Sep 16, 4:04am

Wed Sep 16, 3:04am

Wed Sep 16, 2:04am

Wed Sep 16, 1:04am

Wed Sep 16, 12:05am

Tue Sep 15, 11:04pm

Tue Sep 15, 10:04pm

Tue Sep 15, 9:04pm

Tue Sep 15, 8:04pm

Tue Sep 15, 7:04pm

Tue Sep 15, 6:04pm

Tue Sep 15, 5:04pm

Tue Sep 15, 4:05pm

Tue Sep 15, 3:04pm

Tue Sep 15, 2:04pm

Tue Sep 15, 1:04pm

Tue Sep 15, 12:04pm

Tue Sep 15, 11:04am

Tue Sep 15, 10:04am

Tue Sep 15, 9:04am

Tue Sep 15, 8:04am

Tue Sep 15, 7:04am

Tue Sep 15, 6:04am

Tue Sep 15, 5:04am

Tue Sep 15, 4:04am

Tue Sep 15, 3:04am

Tue Sep 15, 2:04am

Tue Sep 15, 1:04am

Tue Sep 15, 12:05am

Mon Sep 14, 11:04pm

Mon Sep 14, 10:04pm

Mon Sep 14, 9:04pm

Mon Sep 14, 8:04pm

Mon Sep 14, 7:04pm

Mon Sep 14, 6:04pm

Mon Sep 14, 5:04pm

Mon Sep 14, 4:05pm

Mon Sep 14, 3:04pm

Mon Sep 14, 2:05pm

Mon Sep 14, 1:04pm

Mon Sep 14, 12:04pm

Mon Sep 14, 11:04am

Mon Sep 14, 10:05am

Mon Sep 14, 9:04am

Mon Sep 14, 8:04am

Mon Sep 14, 7:04am

Mon Sep 14, 6:04am

Mon Sep 14, 5:04am

Mon Sep 14, 4:04am

Mon Sep 14, 3:04am

Mon Sep 14, 2:04am

Mon Sep 14, 1:04am

Mon Sep 14, 12:04am

Sun Sep 13, 11:05pm

Meta data:

ID: 07dab2a3-4bfb-432a-812d-7ff7507b9a69
Link: https://api.weather.gov/products/07dab2a3-4bfb-432a-812d-7ff7507b9a69